PROGRESS-MS 10 (43702 NORAD) Tracking and Keplerian Element Data

This shows tracking and keplerian element data for the satellite.

Feedback or suggestion? Click here.




ElementValue
Catalog43702
NamePROGRESS-MS 10
Epoch Orbit1006
Epoch Day20.40714528
Epoch Year2019
RAAN16.2369
Inclination51.6428
Eccentricity0.0004655
Argument of Perigee289.2262
Mean Anonmoly219.4846
Mean Motion15.53163963
Decay Rate1.167E-05
L11 43702U 18091A 19020.40714528 .00001167 00000-0 25685-4 0 9993
L22 43702 51.6428 16.2369 0004655 289.2262 219.4846 15.53163963 10065

Live tracking and technical data element details for PROGRESS-MS 10 (NORAD 43702). PROGRESS-MS 10 can be tracked NOW for your location showing map with azimuth and elevation plus other details from your city location.

Track the satellite on the map from your city or location and see movement details for azimuth, elevation, latitude, longitude, range, height, and movement on the map or in text.







IsCatalogInMostPopularTable: catalog: 43702, numindb: 40
Update: records affected: 1



GetName: 43702 PROGRESS-MS 10

Hit Count: updated at: Wed, 23 Jan 2019 02:40:59 GMT